Home   Weather   Harrisburg   Past weeks

Flag for USA Past Weather in Harrisburg, Pennsylvania, USA — Yesterday and Last 2 Weeks

Now
57 °F

Fog.


Feels Like: 55 °F
Forecast: 58 / 65 °F
Wind: 9 mph from East

Location: Capital City Airport

Current Time: Oct 1, 2016 at 8:15:47 AM

Latest Report: Oct 1, 2016 at 6:56 AM


Visibility: 5 mi

Pressure: 30.17 "Hg

Humidity: 90%

Dew Point: 54 °F

Location of HarrisburgLocation

Past Weather in Harrisburg — Graph

°F

Harrisburg Temperature Yesterday

Maximum temperature yesterday: 60 °F (at 5:56 PM)
Minimum temperature yesterday: 55 °F (at 5:56 AM)
Average temperature yesterday: 58 °F

High & Low Weather Summary for the Past Weeks

 TemperatureHumidityPressure
High90 °F (Sep 23, 3:56 PM)93% (Sep 19, 4:59 AM)30.32 "Hg (Sep 19, 4:59 AM)
Low48 °F (Sep 25, 5:56 AM)26% (Sep 22, 2:56 PM)29.86 "Hg (Sep 27, 4:56 PM)
Average68 °F72%30.11 "Hg
* Reported Sep 16 6:56 AM — Oct 1 6:56 AM, Harrisburg, Weather by CustomWeather, © 2016

Note: Actual official high and low records may vary slightly from our data, if they occured in-between our weather recording intervals... More about our weather records

Advertising

Harrisburg Weather History for the Previous 24 Hours

Scroll right to see more
 ConditionsComfort  
Time TempWeatherWind HumidityBarometerVisibility
6:56 AM
Sat, Oct 1
57 °FFog.9 mph90%30.17 "Hg5 mi
5:56 AM57 °FFog.9 mph90%30.17 "Hg3 mi
4:56 AM57 °FFog.12 mph90%30.17 "Hg4 mi
3:56 AM58 °FFog.8 mph90%30.17 "Hg5 mi
2:56 AM58 °FFog.9 mph90%30.18 "Hg6 mi
1:56 AM58 °FLow clouds.12 mph90%30.18 "Hg7 mi
12:56 AM58 °FLow clouds.9 mph90%30.19 "Hg7 mi
11:56 PM
Fri, Sep 30
59 °FFog.8 mph87%30.19 "Hg6 mi
10:56 PM60 °FOvercast.10 mph83%30.21 "Hg10 mi
9:56 PM60 °FOvercast.13 mph83%30.20 "Hg10 mi
8:56 PM60 °FOvercast.12 mph83%30.20 "Hg10 mi
7:56 PM60 °FOvercast.9 mph83%30.22 "Hg10 mi
6:56 PM60 °FOvercast.13 mph83%30.21 "Hg10 mi
5:56 PM60 °FOvercast.8 mph83%30.20 "Hg7 mi
4:56 PM59 °FOvercast.9 mph87%30.19 "Hg10 mi
3:56 PM59 °FFog.7 mph87%30.20 "Hg5 mi
2:56 PM58 °FFog.10 mph87%30.22 "Hg5 mi
1:56 PM58 °FOvercast.9 mph84%30.23 "Hg10 mi
12:56 PM58 °FOvercast.12 mph84%30.25 "Hg10 mi
11:56 AM57 °FOvercast.9 mph87%30.25 "Hg8 mi
10:56 AM56 °FLight rain. Overcast.12 mph87%30.27 "Hg10 mi
9:56 AM56 °FLight rain. Overcast.10 mph84%30.27 "Hg6 mi
8:56 AM55 °FLight rain. Overcast.12 mph87%30.27 "Hg7 mi
Weather by CustomWeather, © 2016

See weather overviewHow to use our weather pages